SCP
4 4 3 3 3 3 3 4 4 3 3 2 2 2 2 2 1 2 2 2 2 2 2 2 2 2 2 2 2 2 2 3 3 2 1 1 2 2 1 2 2 2 2
4 4 4 3 4 4 5 4 4 3 3 2 2 2 2 2 2 2 2 2 2 2 2 2 2 2 2 2 3 2 2 2 2 2 1 2 2 2 2 2 2 2 2
5 5 5 5 5 5 5 5 4 3 3 3 3 2 2 2 2 2 2 2 2 2 2 2 2 2 2 3 3 4 3 3 3 2 2 2 2 2 2 1 1 2 2
6 6 6 6 6 6 5 5 4 4 4 3 3 2 2 2 2 2 2 2 2 2 2 2 2 2 3 3 4 5 5 4 4 4 3 2 2 2 1 1 1 1 1
8 8 8 7 7 7 6 6 6 5 4 3 2 2 2 2 1 1 1 2 2 3 3 3 3 3 3 3 4 4 5 5 5 5 4 3 2 2 2 2 1 1 1
10 11 10 9 8 8 7 7 7 5 3 2 2 2 2 1 1 1 1 2 3 3 3 3 3 3 3 3 3 3 4 4 4 4 4 3 3 3 2 2 2 1 1
11 12 12 11 9 8 7 7 6 4 3 2 2 2 2 1 1 1 1 1 2 3 3 3 3 2 2 2 2 2 2 2 2 3 3 3 3 2 2 2 1 1 1
12 13 12 10 8 7 7 7 6 4 3 2 2 2 2 1 1 0 0 1 1 2 2 2 2 1 1 1 1 1 1 1 1 1 2 2 2 2 1 1 1 1 1
12 12 10 9 8 8 7 6 5 4 3 2 2 2 2 2 1 0 0 1 1 1 1 1 1 1 1 1 1 1 1 1 1 1 0 1 0 0 1 1 1 1 0
10 10 10 9 9 8 6 5 4 3 2 2 2 2 2 1 1 0 0 1 1 1 1 1 1 1 0 0 1 1 1 1 1 1 0 0 0 0 0 0 0 0 0
9 8 8 7 6 5 4 3 3 2 2 2 2 2 2 1 1 1 0 0 1 1 1 1 1 1 0 0 0 1 1 1 1 1 1 0 0 0 0 0 0 0 0
7 6 5 4 4 3 3 3 3 3 2 2 2 2 2 1 1 1 0 0 0 1 1 1 1 0 0 0 0 0 0 0 1 1 1 0 0 0 0 0 0 0 0
7 5 4 3 3 2 2 2 3 3 3 2 2 2 2 2 1 1 1 0 0 0 1 1 0 0 0 0 0 0 0 0 0 1 1 1 0 0 0 0 0 0 0
6 5 4 3 2 2 2 1 1 2 2 2 2 2 2 2 2 2 2 1 0 0 0 0 0 0 0 0 0 0 0 0 0 0 1 1 1 0 0 0 0 0 0
5 4 3 3 2 1 1 1 1 1 1 1 1 1 2 2 1 1 2 1 1 0 0 0 0 0 0 0 0 0 0 0 0 0 0 0 0 0 0 0 0 0 0
4 3 3 2 1 1 1 0 0 0 0 0 0 0 1 1 1 0 1 1 0 0 0 0 0 0 0 0 0 0 0 0 0 0 0 0 0 0 0 0 0 0 0
3 2 2 1 1 0 0 0 0 0 0 0 0 0 0 0 0 0 0 0 0 0 0 0 0 0 0 0 0 0 0 0 0 0 0 0 0 0 0 0 0 0 0
2 2 1 1 0 0 0 0 0 0 0 0 0 0 0 0 0 0 0 0 0 0 0 0 0 0 0 0 0 0 0 0 0 0 0 0 0 0 0 0 0 0 0
2 1 1 1 0 0 0 0 0 0 0 0 0 0 0 0 0 0 0 0 0 0 0 0 0 0 0 0 0 0 0 0 0 0 0 0 0 0 0 0 0 0 0
1 1 1 1 0 0 0 0 0 0 0 0 0 0 0 0 0 0 0 0 0 0 0 0 0 0 0 0 0 0 0 0 0 0 0 0 0 0 0 0 0 0 0
1 1 0 0 0 0 0 0 0 0 0 0 0 0 0 0 0 0 0 0 0 0 0 0 0 0 0 0 0 0 0 0 0 0 0 0 0 0 0 0 0 0 0
1 1 0 0 0 0 0 0 0 0 0 0 0 0 0 0 0 0 0 0 0 0 0 0 0 0 0 0 0 0 0 0 0 0 0 0 0 0 0 0 0 0 0
1 1 1 1 0 0 0 0 0 0 0 0 0 0 0 0 0 0 0 0 0 0 0 0 0 0 0 0 0 0 0 0 0 0 0 0 0 0 0 0 0 0 0
1 1 1 1 0 0 0 0 0 0 0 0 0 0 0 0 0 0 0 0 0 0 0 0 0 0 0 0 0 0 0 0 0 0 0 0 0 0 0 0 0 0 0
1 1 0 0 0 0 0 0 0 0 0 0 0 0 0 0 0 0 0 0 0 0 0 0 0 0 0 0 0 0 0 0 0 0 0 0 0 0 0 0 0 0 0
1 0 0 0 0 0 0 0 0 0 0 0 0 0 0 0 0 0 0 0 0 0 0 0 0 0 0 0 0 0 0 0 0 0 0 0 0 0 0 0 0 0 0
Wind_Speed
4 3 3 3 2 2 1 2 1 1 1 1 0 1 2 2 2 2 3 2 2 2 2 2 2 2 1 2 2 2 2 2 3 3 1 1 1 1 2 1 3 3 3
5 4 3 2 3 2 2 2 2 2 1 1 1 0 1 1 1 2 2 2 2 2 2 2 2 2 1 2 2 2 2 2 2 2 1 1 1 1 1 1 1 1 2
6 5 4 3 3 3 3 3 2 2 2 1 1 0 1 1 0 0 1 0 0 0 0 1 1 1 1 1 2 2 2 2 1 1 1 0 0 1 1 1 2 2 2
6 5 5 4 3 3 3 3 3 2 2 2 2 1 2 1 1 1 1 1 1 1 1 2 2 2 2 2 2 2 2 2 1 0 1 1 1 0 1 1 1 1 1
6 5 4 4 4 4 4 3 3 3 3 3 2 3 3 2 3 2 1 1 1 2 2 3 4 5 6 4 3 3 3 2 1 1 1 1 1 1 1 0 0 0 1
5 5 5 5 4 4 4 4 4 4 3 4 4 4 4 4 6 6 4 3 3 3 3 3 4 5 6 7 9 9 7 4 2 2 2 2 2 2 1 0 0 1 0
5 5 6 5 5 4 4 4 4 4 3 3 4 5 5 6 8 7 6 4 5 4 4 3 3 4 5 3 6 7 8 9 6 3 3 3 2 3 2 2 1 1 1
6 5 6 5 5 5 4 4 4 4 4 4 5 5 5 7 8 7 6 5 5 6 5 4 4 4 4 4 4 5 6 6 6 5 4 4 4 3 2 1 1 1 2
6 5 5 5 5 5 5 5 4 4 5 5 5 5 6 6 8 7 5 4 5 6 6 7 6 5 7 6 4 5 4 4 6 7 7 6 7 9 6 3 2 1 1
6 5 5 5 6 6 6 5 4 5 5 5 6 6 6 7 9 10 6 3 4 5 5 6 9 7 8 6 4 4 4 3 3 4 4 5 4 6 8 6 4 2 2
6 6 6 6 6 6 6 5 5 5 5 5 6 6 6 7 9 11 9 4 4 4 4 4 5 8 8 8 6 4 3 2 2 3 3 3 4 4 5 5 5 4 3
7 7 7 6 6 6 5 5 5 5 5 5 5 5 5 6 8 9 10 8 6 5 4 4 4 7 8 7 5 5 5 4 2 3 3 4 4 4 3 4 4 4 3
8 7 7 8 7 5 5 4 4 3 3 4 4 5 5 5 6 8 8 8 8 4 4 5 4 4 5 3 4 4 4 2 2 3 4 3 3 2 2 2 3 2 2
7 7 7 7 7 7 5 5 5 4 3 3 4 4 5 4 4 3 3 4 4 4 3 4 4 4 3 3 3 3 2 3 3 3 3 2 2 2 2 2 2 1 2
7 7 7 8 8 8 8 7 7 7 6 5 4 4 4 5 4 5 4 3 3 3 2 2 2 2 3 3 3 4 4 4 4 3 3 3 2 2 2 2 2 2 2
6 6 6 6 6 7 7 8 14 11 12 13 11 7 6 6 5 8 9 8 7 5 4 3 3 4 4 4 4 4 4 4 4 3 3 3 3 3 3 3 3 3 3
6 6 5 6 6 6 6 6 6 7 11 13 12 10 8 6 6 6 6 6 5 4 3 3 4 4 4 4 4 4 4 4 3 3 3 3 3 3 3 3 3 3 3
7 6 6 5 5 5 6 6 5 6 6 5 6 7 6 5 4 4 4 3 2 3 3 3 4 3 3 4 4 4 3 3 3 3 3 3 3 3 3 2 2 3 3
6 5 4 5 5 5 5 5 5 6 6 6 5 3 2 2 3 3 3 2 3 3 3 3 3 3 3 3 3 3 3 3 3 2 3 2 2 2 2 2 2 2 2
5 6 5 5 5 5 5 5 5 5 5 5 4 4 3 2 2 2 2 1 2 3 3 3 3 3 3 3 3 2 2 2 2 2 2 2 2 2 2 3 2 2 2
6 6 5 5 5 5 5 5 5 5 5 4 4 3 2 2 3 3 2 2 2 3 3 3 3 3 3 2 2 3 3 3 2 3 2 2 2 2 2 2 3 3 3
6 6 5 5 5 5 5 5 5 5 5 6 5 4 2 1 1 2 2 3 3 3 3 2 2 2 2 2 2 2 2 3 3 3 3 3 2 3 3 3 3 3 3
5 6 5 5 5 5 4 4 4 5 5 5 5 4 3 1 1 2 2 2 2 2 2 2 2 3 3 3 3 4 4 4 3 3 4 4 4 3 3 3 4 4 3
5 6 7 6 5 5 4 5 4 4 4 4 3 3 3 2 2 2 2 2 2 2 2 2 2 4 5 3 3 4 4 4 4 3 5 5 5 4 3 3 4 4 3
5 5 6 6 5 5 4 4 4 3 3 3 3 3 3 3 3 2 2 2 2 2 2 2 2 3 4 4 4 4 3 4 4 4 4 5 5 4 4 5 4 4 4
5 5 5 5 4 4 4 3 3 3 3 3 3 2 2 2 3 3 2 2 2 2 2 2 2 2 2 3 4 4 2 1 2 4 4 5 6 4 4 4 6 5 5
Wind_Direction
145 146 126 136 134 129 99 88 90 68 46 63 136 224 222 214 214 220 229 213 215 231 241 231 242 265 297 312 309 300 289 269 264 278 296 7 29 51 104 134 131 136 136
143 135 121 118 115 113 102 96 93 91 77 61 83 358 282 245 237 227 236 224 215 224 241 248 243 253 258 300 310 305 301 300 272 279 309 346 354 16 90 120 119 140 115
142 136 127 117 107 99 91 89 90 88 83 54 47 26 300 313 12 301 237 218 213 233 294 303 309 308 320 315 310 308 304 300 299 271 268 265 345 348 54 68 61 58 74
135 132 127 122 112 104 94 84 78 77 80 68 44 22 15 29 30 38 81 97 68 41 36 40 32 24 2 332 324 323 315 328 346 336 299 351 33 11 82 103 63 81 86
129 126 124 121 112 105 100 92 83 72 73 66 51 37 31 32 26 18 55 97 74 62 56 61 64 62 55 43 28 12 2 7 6 29 39 39 24 18 347 304 73 119 86
126 121 117 114 109 105 100 92 86 76 65 60 56 52 48 37 34 42 51 54 58 57 56 60 75 68 68 74 68 57 46 36 18 28 32 37 17 3 339 342 140 236 171
125 120 117 115 111 105 103 96 90 83 73 65 63 62 61 44 40 47 53 63 59 55 53 45 48 51 51 65 76 65 53 49 52 57 48 29 17 1 341 332 343 3 19
123 119 117 123 121 111 102 92 84 77 73 65 62 65 64 44 37 46 55 71 65 57 49 48 60 48 43 48 75 79 67 49 52 66 66 47 31 5 349 341 335 76 77
119 115 114 115 111 106 98 88 80 79 75 70 64 61 61 45 31 38 49 86 79 67 55 47 48 54 39 47 78 88 85 81 69 75 74 66 50 37 30 29 21 56 71
111 109 105 102 101 100 96 91 86 84 82 78 70 62 61 53 35 34 35 79 87 85 70 58 54 50 33 35 59 76 74 61 69 72 67 54 51 46 40 36 26 33 59
108 103 97 95 99 99 98 95 96 92 90 87 82 73 65 58 50 44 45 58 69 78 75 64 51 48 44 43 54 57 51 36 55 80 79 65 54 49 46 42 36 43 55
102 100 97 94 92 95 96 94 96 100 101 95 89 83 72 59 51 49 52 54 56 66 71 73 67 60 55 45 49 37 34 38 54 68 71 64 56 47 46 52 51 50 59
104 99 94 89 82 83 87 93 95 95 96 95 92 85 80 74 63 57 58 58 57 67 74 79 71 64 59 55 48 39 42 51 59 71 69 63 57 45 39 49 44 40 52
112 108 104 98 85 66 55 56 56 45 61 82 81 83 82 67 50 48 70 77 83 88 92 96 86 65 55 41 43 43 50 44 50 66 65 59 56 55 45 38 37 33 55
116 113 107 96 90 76 63 49 57 51 46 57 63 70 78 76 36 32 49 50 50 61 65 82 76 71 69 66 61 52 53 48 43 45 53 52 48 43 42 32 17 15 34
125 123 116 114 110 106 98 79 56 64 63 62 62 74 76 76 69 59 55 51 48 49 56 56 61 59 61 64 65 66 60 48 35 38 43 39 38 41 42 36 25 26 29
124 124 120 122 123 122 119 113 103 77 66 63 63 68 78 81 71 60 49 38 33 46 60 63 63 59 57 59 61 61 63 53 35 38 36 32 31 36 43 39 32 23 17
124 120 125 127 126 124 124 125 125 123 113 90 69 68 78 79 66 50 39 30 55 68 68 66 70 69 63 59 62 62 63 57 40 39 43 30 22 26 29 29 36 14 355
127 130 128 126 127 127 129 127 121 119 117 119 122 110 94 95 61 29 31 42 61 65 75 72 68 68 66 61 57 57 56 57 44 34 40 22 13 17 18 10 19 11 341
115 118 129 135 133 133 133 129 125 124 122 124 126 132 153 161 131 110 98 70 71 72 70 74 69 65 60 57 57 50 54 54 37 25 26 5 357 358 360 3 3 352 360
125 129 134 132 125 128 127 125 127 131 127 119 109 101 114 139 120 110 107 95 78 76 72 70 70 67 65 52 47 52 46 39 27 10 6 353 350 350 341 357 360 353 354
130 136 145 131 125 127 129 133 135 130 127 129 133 135 144 169 101 100 105 102 97 88 85 75 73 71 66 60 48 39 36 31 25 8 357 348 340 340 351 360 357 347 343
137 142 137 125 123 126 143 137 134 136 137 138 138 140 146 152 118 101 94 88 86 88 84 71 55 57 57 55 52 46 35 28 15 11 354 340 339 345 347 347 338 333 345
147 142 134 132 139 152 144 133 135 134 131 129 130 136 142 143 119 103 98 95 91 88 85 85 79 69 60 52 58 58 46 28 5 0 351 335 330 332 334 332 327 334 340
141 137 136 141 147 147 139 139 137 133 131 133 137 138 134 130 129 125 120 121 118 110 111 102 94 86 79 71 70 73 71 50 28 354 333 321 318 323 325 324 322 319 320
138 138 140 142 140 136 134 139 139 139 135 132 128 125 137 146 138 131 130 129 140 136 131 123 118 120 126 109 95 105 116 60 0 341 321 310 307 310 319 314 310 307 305